GFSSW_prec_cloud_078.txt.gz
Cloud_Cover
100 100 100 83 100 95 100 100 93 100 99 100 100 100 100 97 78 88 100 99 26 94 78 5 5 62 61 5 9 5 45 22 5 5 79 100 16 5 5 0 3 5 0 0 0
100 100 100 100 100 100 100 100 100 100 100 100 97 97 94 73 55 70 98 98 97 24 38 30 16 7 11 18 16 61 15 29 5 18 95 100 66 5 18 2 3 5 0 0 0
100 100 100 100 100 100 100 100 100 100 100 100 67 60 59 50 47 29 88 100 89 63 98 63 66 55 30 58 55 100 99 6 89 71 95 100 95 63 1 61 16 0 0 0 0
100 100 100 100 100 100 100 100 100 100 89 100 93 32 100 78 24 28 35 96 36 80 23 46 18 64 88 98 52 89 99 24 68 39 71 100 91 46 48 37 85 8 0 4 1
100 100 100 100 100 100 100 100 100 100 100 100 100 99 90 34 43 5 56 98 24 17 55 31 65 64 34 100 96 100 99 93 78 100 86 68 14 100 100 88 8 2 5 5 5
100 100 100 100 99 100 100 100 100 78 100 100 100 100 89 52 54 43 77 99 18 5 26 89 71 48 51 100 100 90 92 100 100 69 100 41 1 100 100 34 4 10 5 5 15
100 100 100 100 100 100 100 100 100 69 100 100 100 90 92 23 100 96 100 100 71 34 47 52 63 25 56 100 100 100 51 97 32 87 98 6 1 85 100 43 31 5 48 56 35
100 100 100 100 100 100 100 77 100 92 100 100 99 77 100 30 85 77 100 77 39 68 62 8 88 90 94 100 100 100 100 21 61 50 98 7 0 64 100 100 34 54 10 79 88
100 100 100 100 100 100 100 100 100 98 78 100 100 98 70 90 86 90 99 69 100 100 100 94 80 68 100 100 95 100 100 48 48 100 31 46 4 5 47 60 5 33 100 53 5
100 100 100 100 100 100 99 100 100 100 100 100 100 78 68 78 98 100 99 28 96 100 100 96 62 96 100 97 91 100 99 96 85 22 66 100 38 5 5 5 26 100 85 5 5
100 100 100 100 100 100 100 100 100 100 100 70 93 55 79 98 92 98 94 100 100 100 100 79 100 100 97 82 67 95 100 89 100 100 100 100 40 5 28 14 20 5 5 4 0
100 100 99 100 100 100 100 100 98 92 99 47 96 100 98 99 86 100 90 94 100 99 100 100 100 97 16 83 86 100 61 10 79 100 64 12 9 76 100 100 6 5 1 0 0
100 100 100 100 100 97 100 100 100 100 98 100 100 100 100 98 100 100 94 97 100 100 100 100 100 62 27 95 100 100 9 8 69 58 58 76 95 96 96 44 12 4 4 5 4
100 100 100 100 100 100 100 100 100 100 100 100 100 100 100 100 100 98 100 100 100 100 100 98 100 47 46 100 58 98 9 17 100 34 43 98 100 94 100 32 22 5 5 5 5
100 100 100 100 100 100 100 100 100 100 100 100 100 100 15 100 100 100 100 98 82 100 99 94 98 60 100 86 75 31 100 95 100 98 76 9 100 85 88 17 7 3 5 0 5
100 100 100 100 100 100 100 100 100 100 100 100 100 100 100 100 100 100 100 60 64 30 100 32 100 100 98 79 5 85 100 100 100 97 96 65 72 78 59 70 16 2 5 0 4
100 100 100 100 100 100 100 100 98 100 100 100 100 99 53 20 65 100 93 44 84 95 88 99 100 100 81 37 85 100 100 92 43 25 100 100 55 6 88 99 6 0 4 0 2
100 100 100 100 100 100 100 100 100 100 100 100 100 100 96 96 89 54 85 100 93 100 75 100 90 35 6 5 66 48 58 16 24 100 100 100 49 5 97 5 5 4 5 0 4
100 100 100 100 100 100 100 100 100 100 85 100 100 100 100 100 100 100 100 98 100 100 100 56 76 63 5 11 8 41 6 5 22 82 100 100 64 100 60 62 1 2 4 0 0
100 100 100 100 92 100 100 100 100 100 100 92 100 100 100 100 90 96 100 100 42 15 5 5 10 7 70 78 92 91 89 80 45 85 100 100 100 100 100 5 5 5 5 1 0
100 100 100 100 98 40 60 100 100 100 100 100 100 100 100 100 100 100 100 17 34 49 77 27 7 54 36 37 5 56 100 100 97 95 75 100 100 100 30 13 5 0 1 0 0
100 100 100 100 100 100 100 100 79 100 100 100 100 100 17 100 100 100 100 100 92 100 74 40 26 90 89 77 5 7 100 100 76 62 100 100 100 7 5 62 5 0 5 2 4
100 99 100 100 100 100 100 100 100 74 5 31 65 85 82 98 88 100 94 96 59 21 5 44 9 75 90 77 47 5 100 100 42 100 100 100 98 5 5 5 5 0 5 5 5
100 100 100 100 96 100 100 100 100 100 38 62 5 5 49 5 29 78 35 9 10 5 5 37 13 67 78 11 91 57 100 92 97 99 100 100 70 5 5 10 6 5 5 5 5
100 100 100 100 100 100 100 100 100 100 94 56 31 13 94 5 4 3 20 37 2 0 0 5 62 100 100 76 77 85 84 100 100 83 52 100 98 40 2 5 5 5 5 5 5
100 100 100 100 100 100 100 100 100 100 100 100 98 100 89 5 5 5 0 0 0 2 5 5 26 100 100 98 10 6 100 100 100 77 60 100 100 58 25 5 5 0 5 4 5
100 100 100 100 100 100 100 100 100 100 100 100 100 87 40 75 29 5 5 4 2 3 5 6 94 100 37 100 22 1 100 100 100 47 8 89 100 100 99 63 21 5 5 5 5

GFSSW_prec_cloud_084.txt.gz
Cloud_Cover
91 100 82 100 100 96 100 100 96 99 100 88 89 100 100 95 11 20 80 63 99 74 65 35 7 7 43 8 8 5 4 20 5 63 100 100 100 99 5 5 2 0 0 4 4
100 94 100 100 94 100 100 100 100 94 100 100 53 100 100 97 16 36 93 99 43 36 44 47 5 5 5 5 26 5 6 7 5 35 100 100 37 52 5 3 3 0 0 48 5
100 100 100 100 100 100 93 100 100 92 13 90 66 92 100 97 75 100 100 90 46 46 41 11 5 5 5 5 5 5 10 5 90 32 25 100 98 5 5 5 5 0 0 0 0
31 76 100 100 100 95 97 99 98 92 88 88 14 39 100 100 100 11 84 12 76 44 63 33 21 24 12 11 11 5 19 17 65 46 45 73 100 100 34 2 0 5 0 3 1
92 81 86 100 100 100 100 100 100 98 96 100 100 20 92 100 90 77 31 94 100 30 62 9 21 50 62 72 18 5 88 96 100 89 97 78 100 100 7 5 1 4 1 5 5
86 30 100 99 100 100 100 100 100 100 100 100 100 96 100 100 100 100 6 19 80 16 51 5 5 50 100 93 24 5 70 99 99 64 64 98 100 19 5 2 5 9 5 5 0
99 96 100 100 100 100 100 100 100 100 100 100 92 85 85 63 100 100 95 6 9 9 19 5 51 62 89 92 69 57 14 98 100 72 81 12 100 37 2 2 4 5 5 5 0
84 100 100 100 100 100 100 100 100 100 100 100 99 83 100 86 95 100 77 5 5 5 27 53 56 60 93 92 62 31 7 94 76 100 5 13 100 17 2 2 10 100 95 6 4
100 100 100 100 100 100 100 100 100 100 100 100 100 100 84 87 100 100 100 48 33 6 26 26 87 71 86 100 80 5 5 60 96 100 53 92 94 72 2 5 60 20 15 5 5
100 99 100 100 100 100 100 100 100 100 100 100 99 100 96 98 99 100 100 100 100 99 97 79 100 77 96 100 64 5 35 68 100 80 88 71 48 71 5 0 0 0 5 5 5
100 96 100 100 100 100 100 100 100 100 100 100 100 100 65 59 100 95 96 100 100 100 100 88 68 67 100 82 43 5 72 100 89 10 83 6 14 100 18 0 0 0 5 5 39
100 100 100 100 100 100 100 100 100 100 100 100 100 100 100 89 68 91 90 90 100 100 100 99 78 60 37 6 5 38 100 88 99 20 5 14 19 57 51 2 4 2 2 25 9
100 100 100 100 100 100 100 100 100 100 100 100 100 100 83 78 100 100 100 100 100 100 100 63 81 30 5 5 61 45 99 100 64 96 89 15 31 42 36 51 5 3 10 72 5
100 100 100 100 100 100 100 100 100 100 100 100 100 97 29 95 100 100 100 100 99 100 53 70 99 8 15 66 74 100 100 94 71 98 97 20 76 34 6 22 8 3 22 100 5
100 100 100 100 100 100 100 100 100 100 100 93 79 100 100 100 99 84 100 78 99 68 86 100 32 5 7 44 92 99 87 64 28 60 20 8 25 6 5 5 5 5 22 85 6
100 100 100 100 100 100 100 100 100 100 100 97 90 100 100 100 99 78 100 100 100 93 100 85 90 28 18 97 100 82 59 35 76 98 77 39 88 100 44 5 5 5 13 12 56
100 100 100 100 100 100 100 100 100 100 100 100 100 100 100 100 89 99 100 100 100 100 99 42 94 58 100 100 100 16 5 11 44 100 90 72 92 100 51 5 1 5 5 10 100
100 100 100 100 100 100 100 100 100 100 100 100 100 100 100 100 93 100 100 100 97 58 100 66 18 99 100 100 58 85 88 63 66 100 98 97 100 100 29 5 5 5 5 5 83
100 100 100 100 100 100 100 100 100 100 100 100 100 100 100 100 100 100 98 100 91 100 62 36 58 97 100 88 8 79 100 69 56 99 100 100 92 100 96 83 5 5 57 91 58
100 100 100 100 100 100 100 100 100 100 100 100 100 100 100 100 100 100 100 100 100 97 80 97 100 100 100 100 44 89 100 72 10 74 84 98 100 100 14 5 5 5 28 96 48
100 100 100 100 100 100 100 100 100 100 100 100 100 100 100 100 100 100 100 100 100 100 100 100 100 99 56 87 96 83 100 19 5 18 78 95 100 100 5 0 2 11 6 83 100
100 100 100 100 100 100 100 100 100 100 100 100 100 100 100 100 100 100 100 100 100 100 100 100 100 100 37 67 5 6 71 60 6 47 71 80 94 76 7 3 0 5 5 73 100
100 100 100 100 100 100 100 100 100 100 100 100 100 100 100 100 100 100 100 100 100 100 100 100 92 100 95 39 51 57 22 38 65 39 95 18 22 84 50 5 5 6 100 100 100
100 100 100 100 100 100 100 100 100 100 100 100 100 100 100 100 100 100 100 100 100 100 100 100 98 100 99 83 90 42 8 6 45 48 6 61 9 43 0 0 0 5 100 100 99
100 100 100 100 100 100 100 100 100 100 100 100 100 100 100 100 100 100 100 100 100 63 65 100 100 81 16 10 69 81 63 7 6 2 0 31 0 100 8 5 0 0 7 78 90
47 100 100 100 100 100 100 100 100 100 100 100 100 100 100 100 100 100 100 100 100 100 71 43 62 7 5 18 33 91 69 0 0 1 0 0 1 10 5 5 2 0 2 5 5
50 100 100 100 100 100 100 100 100 100 100 100 100 100 100 100 100 100 100 100 100 99 100 29 13 5 8 9 4 0 5 0 0 0 1 0 0 0 0 5 5 5 4 5 5

GFSSW_prec_cloud_087.txt.gz
Cloud_Cover
100 100 100 100 100 100 100 84 100 99 94 9 5 75 100 100 100 100 34 33 5 9 78 26 5 65 31 5 5 5 6 5 17 32 57 30 5 5 11 7 5 4 0 0 0
100 100 100 100 100 100 100 89 75 100 100 88 15 34 41 99 100 100 100 26 25 92 80 24 44 62 86 5 6 5 26 5 58 23 19 62 5 5 75 100 41 4 5 0 0
64 100 100 99 94 100 100 100 99 100 100 100 85 77 99 92 100 100 100 18 96 85 26 5 19 82 99 5 5 5 5 40 84 95 100 73 46 90 18 20 4 0 0 0 0
5 10 100 100 91 100 100 100 100 100 100 100 93 100 98 97 84 100 100 45 100 98 100 100 50 13 100 19 5 6 34 9 94 54 88 88 66 100 5 5 0 0 0 1 0
44 7 53 100 100 86 92 99 100 78 100 100 100 100 59 90 66 100 100 100 87 21 62 50 6 5 51 80 38 52 56 12 35 78 13 99 74 100 85 20 0 0 0 0 0
52 42 55 97 100 100 93 100 72 100 100 100 100 100 96 36 5 40 100 100 100 76 43 64 23 5 7 11 24 7 27 97 18 95 36 76 39 100 67 88 5 0 0 0 0
87 5 43 7 100 100 100 100 100 100 76 81 98 100 67 68 79 64 97 100 84 89 28 89 98 38 5 7 35 5 5 54 38 6 46 90 45 7 23 91 58 3 0 1 17
34 6 33 37 84 94 87 100 100 100 100 100 94 88 74 45 86 100 100 100 100 100 93 62 22 6 5 13 34 57 5 69 34 5 5 99 94 6 5 8 22 18 4 4 1
88 89 5 98 97 92 92 100 100 100 100 92 91 96 88 75 100 100 92 100 100 100 82 50 17 33 31 63 15 5 9 57 13 38 5 31 91 49 13 98 50 41 5 0 0
100 78 61 97 100 100 98 100 100 100 100 100 100 100 96 100 100 100 90 100 100 100 100 65 43 70 57 81 68 54 53 37 6 69 30 82 66 11 43 92 5 63 15 0 0
100 81 93 98 100 100 100 100 98 100 100 100 100 100 100 94 100 100 100 99 100 100 100 100 89 72 93 100 88 66 53 29 5 32 68 100 100 81 5 34 5 19 26 0 0
100 100 100 88 96 96 100 100 100 100 100 100 100 100 100 100 100 100 100 82 100 100 99 100 100 98 100 100 72 72 48 74 14 5 100 96 11 68 7 5 5 39 16 4 2
100 100 97 89 98 100 100 100 100 100 100 100 100 100 100 100 100 98 100 100 100 100 100 100 88 69 84 99 82 64 14 35 10 5 96 37 20 10 5 5 50 13 5 7 2
96 100 100 100 73 100 100 100 100 100 100 100 100 100 78 100 100 100 100 100 100 100 51 76 100 80 80 61 38 63 5 5 5 5 35 94 19 6 5 5 24 10 77 34 4
98 100 100 100 100 100 53 100 100 100 100 100 100 100 100 100 100 98 100 100 100 100 89 96 100 100 100 82 97 100 6 5 5 14 63 96 8 5 5 5 5 12 61 90 5
100 99 100 100 100 100 100 100 100 100 100 100 100 100 100 100 100 100 100 100 100 100 100 100 100 100 100 49 34 28 33 5 5 42 47 15 4 5 5 5 5 5 56 19 5
100 100 98 100 100 100 100 100 100 100 100 100 100 100 100 100 100 100 100 100 100 100 100 100 100 100 76 94 82 66 5 5 5 6 5 5 5 5 6 5 5 27 76 11 10
100 100 100 100 100 100 100 100 100 100 100 100 100 100 100 100 100 100 100 100 100 100 100 100 100 95 99 100 100 53 6 55 71 27 82 85 73 55 5 5 5 6 19 85 94
100 100 100 100 100 100 100 100 100 100 100 100 100 100 100 100 100 100 100 100 100 100 100 100 99 100 98 100 89 17 5 7 59 97 100 90 96 83 11 8 5 8 5 5 46
100 100 100 100 100 100 100 100 100 100 100 100 100 100 100 100 100 100 100 100 100 100 100 100 100 100 100 88 75 60 33 56 100 100 100 95 100 66 12 5 5 44 18 5 5
100 100 100 100 100 100 100 100 100 100 100 100 100 100 100 100 100 100 100 100 100 100 100 100 99 100 100 100 83 58 100 100 83 91 67 82 58 100 5 5 5 5 5 5 0
100 100 100 100 100 100 99 100 100 100 100 100 100 100 100 100 100 100 100 100 100 100 100 100 100 100 100 100 100 100 100 100 100 8 11 5 98 62 29 5 5 5 5 5 5
100 100 100 100 93 100 72 100 100 100 100 100 100 100 100 100 100 100 100 100 100 100 100 100 100 100 100 100 100 93 92 99 100 100 100 81 87 87 80 5 6 5 64 26 5
100 100 100 94 100 100 100 100 100 100 100 100 100 100 100 100 100 100 100 100 100 100 100 100 100 100 100 100 100 100 100 100 100 100 33 89 12 81 76 72 16 3 0 0 5
100 61 97 58 29 100 100 100 100 100 100 100 100 100 100 100 100 100 100 100 100 100 100 100 100 100 100 97 86 61 49 38 68 72 9 41 46 24 5 5 5 0 0 0 0
100 27 90 100 48 100 100 100 100 100 100 100 100 100 100 100 100 100 100 100 100 100 100 100 100 100 100 100 100 100 98 38 44 8 5 5 70 5 5 5 0 0 0 0 0
99 99 100 100 91 100 100 100 100 100 100 100 100 100 100 100 100 100 100 100 100 100 100 100 100 100 100 100 100 100 100 76 93 6 5 5 5 4 5 5 3 2 2 2 0

GFSSW_prec_cloud_093.txt.gz
Cloud_Cover
100 22 100 100 85 41 8 96 100 100 49 99 100 100 100 96 100 100 52 100 100 100 99 100 72 16 44 45 23 5 5 5 4 0 5 2 1 6 5 0 0 0 4 0 0
100 100 100 100 100 100 100 46 77 98 88 56 100 100 100 100 100 100 100 100 100 100 100 100 100 39 19 100 95 6 1 8 5 0 4 4 1 4 5 5 4 0 0 0 0
100 100 100 100 100 100 100 100 100 70 87 71 92 100 100 100 96 99 100 100 100 100 100 100 100 100 10 54 30 13 5 24 0 2 5 3 3 0 3 4 3 0 0 0 0
9 0 4 5 5 81 100 100 100 85 78 100 95 78 100 62 92 100 100 100 100 99 100 100 100 100 95 82 100 98 5 5 0 1 5 5 2 0 5 5 5 5 0 0 0
5 1 1 5 5 5 5 75 100 100 98 100 63 95 93 78 92 100 100 100 89 99 87 99 100 100 100 100 100 16 7 5 5 5 5 5 5 5 3 1 4 4 0 0 0
5 5 37 5 5 10 5 5 8 100 100 100 98 96 88 100 100 100 100 100 100 65 39 65 100 99 100 100 100 100 100 16 19 7 5 5 5 5 5 5 5 4 0 0 0
5 5 6 0 5 5 5 5 5 52 100 100 100 83 100 82 100 100 100 100 100 30 78 99 62 78 100 100 100 100 100 89 16 5 5 5 5 5 5 5 5 5 4 5 0
87 100 98 5 4 5 5 5 5 31 100 100 100 100 100 78 90 94 100 100 100 100 100 74 98 100 100 100 100 100 100 100 90 5 6 5 23 5 5 5 5 0 4 0 0
99 100 100 74 8 18 5 5 5 3 5 76 100 100 100 100 100 100 100 100 100 100 100 100 87 65 94 96 100 100 100 100 40 5 100 67 90 13 5 15 5 4 1 1 0
100 100 100 100 80 47 16 5 5 4 5 48 100 100 100 100 97 100 100 100 100 97 100 100 100 100 98 79 63 99 100 100 94 42 37 5 90 100 5 10 14 5 5 5 2
100 100 100 100 91 29 15 5 4 4 5 17 100 100 100 99 100 100 100 100 100 96 100 100 100 100 83 60 100 100 49 100 97 100 100 46 100 15 53 5 63 5 5 13 5
100 100 100 100 100 41 25 5 12 41 5 9 89 100 100 100 100 97 98 71 100 100 100 91 100 80 14 97 100 15 98 95 39 99 67 92 100 97 55 4 27 5 5 5 5
100 100 100 100 87 38 54 5 87 53 5 5 5 100 100 100 100 100 75 100 100 100 100 100 95 33 54 85 100 72 91 96 24 64 22 58 89 87 18 18 29 5 5 5 5
100 100 100 100 86 56 18 64 100 72 7 21 0 15 75 100 100 100 100 78 100 100 100 95 99 100 94 99 100 99 96 47 5 5 21 100 100 100 100 26 66 24 5 5 3
100 100 100 100 95 8 100 85 100 74 46 12 5 5 5 51 100 100 100 100 100 100 60 100 100 100 94 100 84 100 52 20 22 56 5 15 25 100 100 5 89 20 5 5 5
100 100 100 18 12 99 71 96 100 99 13 5 4 65 5 59 70 68 76 91 100 100 100 100 100 86 100 100 83 100 100 100 74 66 87 73 94 100 100 100 100 93 10 5 5
100 100 97 45 100 100 61 100 100 83 41 5 5 100 56 100 69 94 100 92 100 100 100 100 100 100 100 100 100 100 100 99 97 100 100 100 96 100 100 94 74 59 5 10 5
100 100 100 100 100 97 11 91 54 8 99 96 9 16 95 87 37 100 94 89 94 82 100 84 100 100 100 100 100 100 100 100 100 100 100 100 100 100 100 100 100 23 5 6 5
100 100 100 100 100 85 10 5 7 6 100 100 5 8 100 100 100 100 76 99 100 100 93 100 100 100 100 100 100 100 100 100 100 100 99 56 49 77 100 100 96 99 9 5 5
100 100 100 100 100 100 99 7 100 97 100 100 40 98 100 100 100 100 100 100 100 83 100 96 74 100 100 100 100 100 100 100 99 80 54 100 100 100 98 5 5 5 13 72 81
100 100 100 100 100 98 73 94 100 99 100 96 16 100 100 100 100 100 100 100 100 100 100 93 75 100 100 100 99 100 100 89 97 85 90 96 99 100 90 21 5 5 16 32 5
100 100 100 100 13 95 100 100 100 100 100 99 21 100 100 100 100 100 100 100 100 100 100 97 100 100 100 100 100 100 100 100 100 79 42 100 100 100 100 68 6 8 7 14 6
98 100 100 74 5 36 100 100 100 78 87 97 100 99 100 100 100 100 100 100 100 100 100 100 100 100 100 100 100 100 100 100 100 87 100 97 100 100 84 7 99 100 98 8 100
100 100 99 79 42 7 98 100 100 98 100 100 100 74 100 100 100 100 100 100 100 100 100 100 100 100 100 100 100 100 100 100 100 100 100 100 100 100 91 5 98 100 47 97 99
100 83 100 96 7 5 93 100 100 100 100 100 49 58 99 100 100 100 100 100 100 100 100 100 100 100 100 100 100 100 100 100 100 100 100 100 61 100 62 95 100 100 58 90 100
91 56 100 100 100 100 100 100 100 100 100 100 80 100 100 100 100 100 100 100 100 100 100 100 100 100 100 100 100 100 100 100 100 100 81 94 100 100 96 100 100 100 100 100 100
98 100 100 100 100 78 100 100 100 100 100 100 100 100 37 90 100 100 100 100 100 100 100 100 100 100 100 100 100 100 100 100 100 100 93 100 100 100 100 99 85 100 98 5 97